Time,TemperatureF,DewpointF,PressureIn,WindDirection,WindDirectionDegrees,WindSpeedMPH,WindSpeedGustMPH,Humidity,HourlyPrecipIn,Conditions,Clouds,dailyrainin,SoftwareType,DateUTC
2013-12-11 00:00:00,16.4,11.3,30.34,West,264,0.0,0.0,80,0.00,,,0.00,VWS V14.01,2013-12-11 06:00:00,
2013-12-11 00:04:00,16.4,11.3,30.34,West,264,0.0,0.0,80,0.00,,,0.00,VWS V14.01,2013-12-11 06:04:00,
2013-12-11 00:09:00,16.4,11.3,30.34,West,264,0.0,0.0,80,0.00,,,0.00,VWS V14.01,2013-12-11 06:09:00,
2013-12-11 00:14:00,16.4,11.3,30.33,West,264,0.0,0.0,80,0.00,,,0.00,VWS V14.01,2013-12-11 06:14:00,
2013-12-11 00:19:00,16.5,11.7,30.33,West,264,0.0,0.0,81,0.00,,,0.00,VWS V14.01,2013-12-11 06:19:00,
2013-12-11 00:24:00,16.5,11.7,30.33,West,264,0.0,0.0,81,0.00,,,0.00,VWS V14.01,2013-12-11 06:24:00,
2013-12-11 00:29:00,16.5,11.7,30.33,West,264,0.0,0.0,81,0.00,,,0.00,VWS V14.01,2013-12-11 06:29:00,
2013-12-11 00:30:00,16.6,11.8,30.33,West,264,0.0,0.0,81,0.00,,,0.00,VWS V14.01,2013-12-11 06:30:00,
2013-12-11 00:34:00,16.6,11.8,30.33,West,264,0.0,0.0,81,0.00,,,0.00,VWS V14.01,2013-12-11 06:34:00,
2013-12-11 00:39:00,16.5,11.4,30.33,West,264,0.0,0.0,80,0.00,,,0.00,VWS V14.01,2013-12-11 06:39:00,
2013-12-11 00:44:00,16.4,11.3,30.33,West,264,0.0,0.0,80,0.00,,,0.00,VWS V14.01,2013-12-11 06:44:00,
2013-12-11 00:49:00,16.3,11.2,30.32,West,264,0.0,0.0,80,0.00,,,0.00,VWS V14.01,2013-12-11 06:49:00,
2013-12-11 00:54:00,16.2,11.4,30.32,West,264,0.0,0.0,81,0.00,,,0.00,VWS V14.01,2013-12-11 06:54:00,
2013-12-11 00:59:00,16.1,11.3,30.32,West,264,0.0,0.0,81,0.00,,,0.00,VWS V14.01,2013-12-11 06:59:00,
2013-12-11 01:00:00,16.1,11.3,30.31,West,264,0.0,0.0,81,0.00,,,0.00,VWS V14.01,2013-12-11 07:00:00,
2013-12-11 01:04:00,16.1,11.3,30.32,West,264,0.0,0.0,81,0.00,,,0.00,VWS V14.01,2013-12-11 07:04:00,
2013-12-11 01:09:00,16.1,11.3,30.32,West,264,1.0,1.0,81,0.00,,,0.00,VWS V14.01,2013-12-11 07:09:00,
2013-12-11 01:14:00,16.0,11.2,30.31,West,264,0.0,1.0,81,0.00,,,0.00,VWS V14.01,2013-12-11 07:14:00,
2013-12-11 01:19:00,16.0,11.2,30.31,West,264,0.0,1.0,81,0.00,,,0.00,VWS V14.01,2013-12-11 07:19:00,
2013-12-11 01:24:00,16.1,11.6,30.31,West,264,0.0,1.0,82,0.00,,,0.00,VWS V14.01,2013-12-11 07:24:00,
2013-12-11 01:29:00,16.2,11.7,30.31,West,264,0.0,1.0,82,0.00,,,0.00,VWS V14.01,2013-12-11 07:29:00,
2013-12-11 01:30:00,16.2,11.7,30.31,West,264,0.0,1.0,82,0.00,,,0.00,VWS V14.01,2013-12-11 07:30:00,
2013-12-11 01:34:00,16.4,11.9,30.31,West,264,0.0,0.0,82,0.00,,,0.00,VWS V14.01,2013-12-11 07:34:00,
2013-12-11 01:39:00,16.6,12.1,30.31,West,264,0.0,0.0,82,0.00,,,0.00,VWS V14.01,2013-12-11 07:39:00,
2013-12-11 01:44:00,16.9,12.4,30.32,West,264,0.0,0.0,82,0.00,,,0.00,VWS V14.01,2013-12-11 07:44:00,
2013-12-11 01:49:00,17.2,12.4,30.32,West,264,0.0,0.0,81,0.00,,,0.00,VWS V14.01,2013-12-11 07:49:00,
2013-12-11 01:54:00,17.4,12.6,30.32,West,264,0.0,0.0,81,0.00,,,0.00,VWS V14.01,2013-12-11 07:54:00,
2013-12-11 01:59:00,17.6,12.8,30.32,West,264,0.0,0.0,81,0.00,,,0.00,VWS V14.01,2013-12-11 07:59:00,
2013-12-11 02:00:00,17.6,12.5,30.32,West,264,0.0,0.0,80,0.00,,,0.00,VWS V14.01,2013-12-11 08:00:00,
2013-12-11 02:04:00,17.7,12.6,30.32,West,264,0.0,0.0,80,0.00,,,0.00,VWS V14.01,2013-12-11 08:04:00,
2013-12-11 02:09:00,17.8,12.7,30.32,West,264,0.0,0.0,80,0.00,,,0.00,VWS V14.01,2013-12-11 08:09:00,
2013-12-11 02:14:00,17.9,13.1,30.32,West,264,0.0,0.0,81,0.00,,,0.00,VWS V14.01,2013-12-11 08:14:00,
2013-12-11 02:19:00,18.3,13.5,30.32,West,264,0.0,0.0,81,0.00,,,0.00,VWS V14.01,2013-12-11 08:19:00,
2013-12-11 02:24:00,18.5,13.4,30.32,West,264,0.0,0.0,80,0.00,,,0.00,VWS V14.01,2013-12-11 08:24:00,
2013-12-11 02:29:00,18.6,13.5,30.32,West,264,0.0,0.0,80,0.00,,,0.00,VWS V14.01,2013-12-11 08:29:00,
2013-12-11 02:30:00,18.6,13.5,30.32,West,264,0.0,0.0,80,0.00,,,0.00,VWS V14.01,2013-12-11 08:30:00,
2013-12-11 02:34:00,18.6,13.5,30.32,West,264,0.0,0.0,80,0.00,,,0.00,VWS V14.01,2013-12-11 08:34:00,
2013-12-11 02:39:00,18.9,14.3,30.32,West,264,0.0,0.0,82,0.00,,,0.00,VWS V14.01,2013-12-11 08:39:00,
2013-12-11 02:44:00,19.3,14.7,30.32,West,264,0.0,1.0,82,0.00,,,0.00,VWS V14.01,2013-12-11 08:44:00,
2013-12-11 02:49:00,19.5,14.6,30.33,West,264,0.0,1.0,81,0.00,,,0.00,VWS V14.01,2013-12-11 08:49:00,
2013-12-11 02:54:00,19.5,14.4,30.33,West,264,0.0,1.0,80,0.00,,,0.00,VWS V14.01,2013-12-11 08:54:00,
2013-12-11 02:59:00,19.6,14.7,30.33,West,264,0.0,1.0,81,0.00,,,0.00,VWS V14.01,2013-12-11 08:59:00,
2013-12-11 03:00:00,19.8,14.9,30.33,West,264,1.0,1.0,81,0.00,,,0.00,VWS V14.01,2013-12-11 09:00:00,
2013-12-11 03:04:00,20.5,15.3,30.33,West,264,0.0,2.0,80,0.00,,,0.00,VWS V14.01,2013-12-11 09:04:00,
2013-12-11 03:09:00,21.6,15.5,30.32,West,264,0.0,2.0,77,0.00,,,0.00,VWS V14.01,2013-12-11 09:09:00,
2013-12-11 03:14:00,22.4,16.0,30.32,West,264,0.0,2.0,76,0.00,,,0.00,VWS V14.01,2013-12-11 09:14:00,
2013-12-11 03:19:00,22.7,16.0,30.32,West,264,0.0,2.0,75,0.00,,,0.00,VWS V14.01,2013-12-11 09:19:00,
2013-12-11 03:24:00,23.4,16.0,30.32,West,264,0.0,3.0,73,0.00,,,0.00,VWS V14.01,2013-12-11 09:24:00,
2013-12-11 03:29:00,24.0,16.0,30.32,West,264,0.0,3.0,71,0.00,,,0.00,VWS V14.01,2013-12-11 09:29:00,
2013-12-11 03:30:00,24.1,16.1,30.32,West,264,0.0,3.0,71,0.00,,,0.00,VWS V14.01,2013-12-11 09:30:00,
2013-12-11 03:34:00,24.2,16.2,30.32,West,264,1.0,1.0,71,0.00,,,0.00,VWS V14.01,2013-12-11 09:34:00,
2013-12-11 03:39:00,24.3,15.9,30.32,West,264,0.0,2.0,70,0.00,,,0.00,VWS V14.01,2013-12-11 09:39:00,
2013-12-11 03:44:00,24.3,15.6,30.31,West,264,0.0,2.0,69,0.00,,,0.00,VWS V14.01,2013-12-11 09:44:00,
2013-12-11 03:49:00,24.4,15.7,30.32,West,264,0.0,2.0,69,0.00,,,0.00,VWS V14.01,2013-12-11 09:49:00,
2013-12-11 03:54:00,24.5,15.8,30.31,West,264,0.0,2.0,69,0.00,,,0.00,VWS V14.01,2013-12-11 09:54:00,
2013-12-11 03:59:00,24.6,15.9,30.31,West,264,0.0,2.0,69,0.00,,,0.00,VWS V14.01,2013-12-11 09:59:00,
2013-12-11 04:00:00,24.7,16.0,30.31,West,264,0.0,2.0,69,0.00,,,0.00,VWS V14.01,2013-12-11 10:00:00,
2013-12-11 04:04:00,24.7,16.0,30.31,West,264,0.0,0.0,69,0.00,,,0.00,VWS V14.01,2013-12-11 10:04:00,
2013-12-11 04:09:00,24.7,16.0,30.32,West,264,0.0,2.0,69,0.00,,,0.00,VWS V14.01,2013-12-11 10:09:00,
2013-12-11 04:14:00,24.8,16.1,30.31,West,264,0.0,2.0,69,0.00,,,0.00,VWS V14.01,2013-12-11 10:14:00,
2013-12-11 04:19:00,24.8,16.1,30.31,West,264,0.0,2.0,69,0.00,,,0.00,VWS V14.01,2013-12-11 10:19:00,
2013-12-11 04:24:00,24.9,16.2,30.32,West,264,0.0,2.0,69,0.00,,,0.00,VWS V14.01,2013-12-11 10:24:00,
2013-12-11 04:29:00,25.0,15.9,30.31,West,264,0.0,2.0,68,0.00,,,0.00,VWS V14.01,2013-12-11 10:29:00,
2013-12-11 04:30:00,25.1,16.4,30.31,West,264,1.0,2.0,69,0.00,,,0.00,VWS V14.01,2013-12-11 10:30:00,
2013-12-11 04:34:00,25.3,16.2,30.32,West,266,4.0,5.0,68,0.00,,,0.00,VWS V14.01,2013-12-11 10:34:00,
2013-12-11 04:39:00,26.5,16.7,30.31,West,261,4.0,12.0,66,0.00,,,0.00,VWS V14.01,2013-12-11 10:39:00,
2013-12-11 04:44:00,27.3,16.8,30.32,WSW,257,10.0,12.0,64,0.00,,,0.00,VWS V14.01,2013-12-11 10:44:00,
2013-12-11 04:49:00,27.9,17.0,30.32,West,259,3.0,12.0,63,0.00,,,0.00,VWS V14.01,2013-12-11 10:49:00,
2013-12-11 04:54:00,28.0,16.7,30.32,WSW,247,3.0,12.0,62,0.00,,,0.00,VWS V14.01,2013-12-11 10:54:00,
2013-12-11 04:59:00,28.1,16.8,30.32,SW,236,1.0,12.0,62,0.00,,,0.00,VWS V14.01,2013-12-11 10:59:00,
2013-12-11 05:00:00,28.1,16.8,30.32,SW,236,3.0,12.0,62,0.00,,,0.00,VWS V14.01,2013-12-11 11:00:00,
2013-12-11 05:04:00,28.2,16.9,30.32,West,274,2.0,8.0,62,0.00,,,0.00,VWS V14.01,2013-12-11 11:04:00,
2013-12-11 05:09:00,28.4,17.1,30.33,West,278,4.0,8.0,62,0.00,,,0.00,VWS V14.01,2013-12-11 11:09:00,
2013-12-11 05:14:00,28.5,17.5,30.33,West,274,0.0,8.0,63,0.00,,,0.00,VWS V14.01,2013-12-11 11:14:00,
2013-12-11 05:19:00,28.9,17.5,30.34,WNW,303,6.0,8.0,62,0.00,,,0.00,VWS V14.01,2013-12-11 11:19:00,
2013-12-11 05:24:00,29.1,17.3,30.33,WSW,250,2.0,8.0,61,0.00,,,0.00,VWS V14.01,2013-12-11 11:24:00,
2013-12-11 05:29:00,28.7,17.0,30.33,West,271,14.0,15.0,61,0.00,,,0.00,VWS V14.01,2013-12-11 11:29:00,
2013-12-11 05:30:00,28.7,17.0,30.33,WSW,244,8.0,15.0,61,0.00,,,0.00,VWS V14.01,2013-12-11 11:30:00,
2013-12-11 05:34:00,28.4,16.7,30.33,West,273,5.0,10.0,61,0.00,,,0.00,VWS V14.01,2013-12-11 11:34:00,
2013-12-11 05:39:00,28.1,16.4,30.34,WNW,284,5.0,11.0,61,0.00,,,0.00,VWS V14.01,2013-12-11 11:39:00,
2013-12-11 05:44:00,27.9,16.6,30.34,WNW,294,4.0,11.0,62,0.00,,,0.00,VWS V14.01,2013-12-11 11:44:00,
2013-12-11 05:49:00,27.7,16.4,30.34,WSW,257,5.0,11.0,62,0.00,,,0.00,VWS V14.01,2013-12-11 11:49:00,
2013-12-11 05:54:00,27.5,16.2,30.34,WSW,258,5.0,11.0,62,0.00,,,0.00,VWS V14.01,2013-12-11 11:54:00,
2013-12-11 05:59:00,27.2,16.3,30.35,West,273,0.0,11.0,63,0.00,,,0.00,VWS V14.01,2013-12-11 11:59:00,
2013-12-11 06:00:00,27.2,16.3,30.35,West,272,6.0,11.0,63,0.00,,,0.00,VWS V14.01,2013-12-11 12:00:00,
2013-12-11 06:04:00,27.0,16.1,30.35,West,274,6.0,9.0,63,0.00,,,0.00,VWS V14.01,2013-12-11 12:04:00,
2013-12-11 06:09:00,26.9,16.4,30.35,WSW,250,5.0,9.0,64,0.00,,,0.00,VWS V14.01,2013-12-11 12:09:00,
2013-12-11 06:14:00,26.9,16.4,30.34,West,275,12.0,12.0,64,0.00,,,0.00,VWS V14.01,2013-12-11 12:14:00,
2013-12-11 06:20:00,26.9,16.7,30.35,WSW,250,10.0,12.0,65,0.00,,,0.00,VWS V14.01,2013-12-11 12:20:00,
2013-12-11 06:25:00,26.9,16.7,30.35,WSW,248,4.0,12.0,65,0.00,,,0.00,VWS V14.01,2013-12-11 12:25:00,
2013-12-11 06:30:00,26.8,16.6,30.35,WSW,240,3.0,12.0,65,0.00,,,0.00,VWS V14.01,2013-12-11 12:30:00,
2013-12-11 06:35:00,26.7,16.5,30.36,West,269,7.0,7.0,65,0.00,,,0.00,VWS V14.01,2013-12-11 12:35:00,
2013-12-11 06:40:00,26.6,16.8,30.36,SW,226,4.0,7.0,66,0.00,,,0.00,VWS V14.01,2013-12-11 12:40:00,
2013-12-11 06:45:00,26.5,16.7,30.36,WSW,251,2.0,7.0,66,0.00,,,0.00,VWS V14.01,2013-12-11 12:45:00,
2013-12-11 06:50:00,26.4,16.6,30.37,WSW,252,4.0,7.0,66,0.00,,,0.00,VWS V14.01,2013-12-11 12:50:00,
2013-12-11 06:55:00,26.3,16.9,30.37,West,271,5.0,7.0,67,0.00,,,0.00,VWS V14.01,2013-12-11 12:55:00,
2013-12-11 07:00:00,26.3,16.9,30.37,West,268,4.0,8.0,67,0.00,,,0.00,VWS V14.01,2013-12-11 13:00:00,
2013-12-11 07:05:00,26.3,16.9,30.38,West,269,3.0,11.0,67,0.00,,,0.00,VWS V14.01,2013-12-11 13:05:00,
2013-12-11 07:10:00,26.3,17.2,30.38,WSW,238,2.0,11.0,68,0.00,,,0.00,VWS V14.01,2013-12-11 13:10:00,
2013-12-11 07:15:00,26.3,17.2,30.38,SW,230,6.0,11.0,68,0.00,,,0.00,VWS V14.01,2013-12-11 13:15:00,
2013-12-11 07:20:00,26.3,17.2,30.39,WSW,240,6.0,11.0,68,0.00,,,0.00,VWS V14.01,2013-12-11 13:20:00,
2013-12-11 07:25:00,26.5,17.7,30.39,WSW,247,2.0,13.0,69,0.00,,,0.00,VWS V14.01,2013-12-11 13:25:00,
2013-12-11 07:30:00,26.6,17.8,30.39,West,260,3.0,13.0,69,0.00,,,0.00,VWS V14.01,2013-12-11 13:30:00,
2013-12-11 07:35:00,26.7,17.9,30.40,SW,234,10.0,10.0,69,0.00,,,0.00,VWS V14.01,2013-12-11 13:35:00,
2013-12-11 07:40:00,26.7,17.9,30.40,WNW,296,7.0,13.0,69,0.00,,,0.00,VWS V14.01,2013-12-11 13:40:00,
2013-12-11 07:45:00,26.8,18.0,30.40,West,269,1.0,13.0,69,0.00,,,0.00,VWS V14.01,2013-12-11 13:45:00,
2013-12-11 07:50:00,26.9,18.1,30.40,West,269,3.0,13.0,69,0.00,,,0.00,VWS V14.01,2013-12-11 13:50:00,
2013-12-11 07:55:00,26.9,18.1,30.41,SW,219,5.0,13.0,69,0.00,,,0.00,VWS V14.01,2013-12-11 13:55:00,
2013-12-11 08:00:00,27.0,18.2,30.41,WNW,290,2.0,13.0,69,0.00,,,0.00,VWS V14.01,2013-12-11 14:00:00,
2013-12-11 08:05:00,27.0,18.2,30.42,West,268,0.0,5.0,69,0.00,,,0.00,VWS V14.01,2013-12-11 14:05:00,
2013-12-11 08:10:00,27.1,18.6,30.42,NW,317,0.0,10.0,70,0.00,,,0.00,VWS V14.01,2013-12-11 14:10:00,
2013-12-11 08:15:00,27.2,18.7,30.43,NW,314,2.0,10.0,70,0.00,,,0.00,VWS V14.01,2013-12-11 14:15:00,
2013-12-11 08:20:00,27.3,18.8,30.44,West,280,6.0,10.0,70,0.00,,,0.00,VWS V14.01,2013-12-11 14:20:00,
2013-12-11 08:25:00,27.5,19.0,30.44,WNW,295,1.0,10.0,70,0.00,,,0.00,VWS V14.01,2013-12-11 14:25:00,
2013-12-11 08:30:00,27.6,19.1,30.44,WNW,286,2.0,10.0,70,0.00,,,0.00,VWS V14.01,2013-12-11 14:30:00,
2013-12-11 08:35:00,27.6,19.4,30.45,WNW,284,8.0,8.0,71,0.00,,,0.00,VWS V14.01,2013-12-11 14:35:00,
2013-12-11 08:40:00,27.7,19.5,30.46,NNW,342,4.0,12.0,71,0.00,,,0.00,VWS V14.01,2013-12-11 14:40:00,
2013-12-11 08:45:00,27.9,19.7,30.46,North,5,3.0,15.0,71,0.00,,,0.00,VWS V14.01,2013-12-11 14:45:00,
2013-12-11 08:50:00,27.9,19.4,30.47,NNE,21,3.0,16.0,70,0.00,,,0.00,VWS V14.01,2013-12-11 14:50:00,
2013-12-11 08:55:00,27.8,19.3,30.48,West,275,13.0,20.0,70,0.00,,,0.00,VWS V14.01,2013-12-11 14:55:00,
2013-12-11 09:00:00,27.5,18.7,30.48,NNW,330,4.0,20.0,69,0.00,,,0.00,VWS V14.01,2013-12-11 15:00:00,
2013-12-11 09:05:00,27.2,18.0,30.49,WNW,300,6.0,24.0,68,0.00,,,0.00,VWS V14.01,2013-12-11 15:05:00,
2013-12-11 09:10:00,26.9,17.8,30.50,NNW,327,7.0,24.0,68,0.00,,,0.00,VWS V14.01,2013-12-11 15:10:00,
2013-12-11 09:15:00,26.7,17.6,30.50,North,360,6.0,24.0,68,0.00,,,0.00,VWS V14.01,2013-12-11 15:15:00,
2013-12-11 09:20:00,26.7,17.6,30.50,SW,221,0.0,24.0,68,0.00,,,0.00,VWS V14.01,2013-12-11 15:20:00,
2013-12-11 09:25:00,26.7,17.6,30.51,WNW,302,8.0,24.0,68,0.00,,,0.00,VWS V14.01,2013-12-11 15:25:00,
2013-12-11 09:30:00,26.6,17.1,30.51,WSW,257,6.0,7.0,67,0.00,,,0.00,VWS V14.01,2013-12-11 15:30:00,
2013-12-11 09:35:00,26.6,16.8,30.52,WSW,251,8.0,14.0,66,0.00,,,0.00,VWS V14.01,2013-12-11 15:35:00,
2013-12-11 09:40:00,26.6,16.8,30.52,WNW,296,6.0,14.0,66,0.00,,,0.00,VWS V14.01,2013-12-11 15:40:00,
2013-12-11 09:45:00,26.8,17.0,30.53,WNW,284,12.0,14.0,66,0.00,,,0.00,VWS V14.01,2013-12-11 15:45:00,
2013-12-11 09:50:00,26.9,16.7,30.53,SSW,198,0.0,14.0,65,0.00,,,0.00,VWS V14.01,2013-12-11 15:50:00,
2013-12-11 09:55:00,27.2,17.4,30.54,WNW,296,2.0,14.0,66,0.00,,,0.00,VWS V14.01,2013-12-11 15:55:00,
2013-12-11 10:00:00,27.4,17.2,30.54,ESE,103,2.0,4.0,65,0.00,,,0.00,VWS V14.01,2013-12-11 16:00:00,
2013-12-11 10:05:00,27.7,17.5,30.54,NW,319,0.0,9.0,65,0.00,,,0.00,VWS V14.01,2013-12-11 16:05:00,
2013-12-11 10:10:00,27.6,17.0,30.54,West,281,7.0,15.0,64,0.00,,,0.00,VWS V14.01,2013-12-11 16:10:00,
2013-12-11 10:15:00,27.1,16.9,30.55,WSW,251,6.0,17.0,65,0.00,,,0.00,VWS V14.01,2013-12-11 16:15:00,
2013-12-11 10:20:00,26.5,16.7,30.55,NNW,328,6.0,17.0,66,0.00,,,0.00,VWS V14.01,2013-12-11 16:20:00,
2013-12-11 10:25:00,26.1,16.7,30.56,NW,309,9.0,17.0,67,0.00,,,0.00,VWS V14.01,2013-12-11 16:25:00,
2013-12-11 10:30:00,25.8,16.4,30.56,ENE,73,4.0,5.0,67,0.00,,,0.00,VWS V14.01,2013-12-11 16:30:00,
2013-12-11 10:35:00,25.8,16.4,30.56,West,266,5.0,13.0,67,0.00,,,0.00,VWS V14.01,2013-12-11 16:35:00,
2013-12-11 10:40:00,25.7,16.3,30.56,NNW,331,2.0,18.0,67,0.00,,,0.00,VWS V14.01,2013-12-11 16:40:00,
2013-12-11 10:45:00,25.2,15.8,30.57,NW,310,4.0,18.0,67,0.00,,,0.00,VWS V14.01,2013-12-11 16:45:00,
2013-12-11 10:50:00,24.6,15.6,30.57,NW,317,9.0,18.0,68,0.00,,,0.00,VWS V14.01,2013-12-11 16:50:00,
2013-12-11 10:55:00,24.3,15.6,30.57,NNW,337,0.0,18.0,69,0.00,,,0.00,VWS V14.01,2013-12-11 16:55:00,
2013-12-11 11:00:00,24.2,15.5,30.57,North,350,1.0,5.0,69,0.00,,,0.00,VWS V14.01,2013-12-11 17:00:00,
2013-12-11 11:05:00,24.0,15.3,30.57,WNW,289,8.0,15.0,69,0.00,,,0.00,VWS V14.01,2013-12-11 17:05:00,
2013-12-11 11:10:00,23.7,15.4,30.57,West,279,2.0,15.0,70,0.00,,,0.00,VWS V14.01,2013-12-11 17:10:00,
2013-12-11 11:16:00,23.6,15.3,30.57,WNW,294,7.0,15.0,70,0.00,,,0.00,VWS V14.01,2013-12-11 17:16:00,
2013-12-11 11:21:00,23.5,15.2,30.57,North,350,4.0,15.0,70,0.00,,,0.00,VWS V14.01,2013-12-11 17:21:00,
2013-12-11 11:26:00,23.5,14.5,30.58,NNE,22,5.0,15.0,68,0.00,,,0.00,VWS V14.01,2013-12-11 17:26:00,
2013-12-11 11:30:00,23.7,14.4,30.58,West,274,7.0,18.0,67,0.00,,,0.00,VWS V14.01,2013-12-11 17:30:00,
2013-12-11 11:31:00,23.7,14.4,30.58,NE,35,5.0,9.0,67,0.00,,,0.00,VWS V14.01,2013-12-11 17:31:00,
2013-12-11 11:36:00,23.9,14.6,30.58,NNW,338,8.0,16.0,67,0.00,,,0.00,VWS V14.01,2013-12-11 17:36:00,
2013-12-11 11:41:00,24.1,13.7,30.58,NNW,339,9.0,16.0,64,0.00,,,0.00,VWS V14.01,2013-12-11 17:41:00,
2013-12-11 11:46:00,24.3,13.9,30.57,West,281,6.0,16.0,64,0.00,,,0.00,VWS V14.01,2013-12-11 17:46:00,
2013-12-11 11:51:00,24.7,14.3,30.57,NW,306,12.0,16.0,64,0.00,,,0.00,VWS V14.01,2013-12-11 17:51:00,
2013-12-11 11:56:00,24.8,14.0,30.57,North,349,0.0,16.0,63,0.00,,,0.00,VWS V14.01,2013-12-11 17:56:00,
2013-12-11 12:00:00,24.8,14.0,30.57,WNW,302,12.0,16.0,63,0.00,,,0.00,VWS V14.01,2013-12-11 18:00:00,
2013-12-11 12:01:00,24.8,13.6,30.57,WNW,299,2.0,12.0,62,0.00,,,0.00,VWS V14.01,2013-12-11 18:01:00,
2013-12-11 12:06:00,24.4,14.0,30.57,NW,312,4.0,13.0,64,0.00,,,0.00,VWS V14.01,2013-12-11 18:06:00,
2013-12-11 12:11:00,24.4,14.3,30.57,West,281,6.0,13.0,65,0.00,,,0.00,VWS V14.01,2013-12-11 18:11:00,
2013-12-11 12:16:00,24.2,13.4,30.57,NW,315,2.0,13.0,63,0.00,,,0.00,VWS V14.01,2013-12-11 18:16:00,
2013-12-11 12:21:00,23.9,13.1,30.57,NW,314,8.0,15.0,63,0.00,,,0.00,VWS V14.01,2013-12-11 18:21:00,
2013-12-11 12:26:00,24.2,13.1,30.56,West,277,7.0,15.0,62,0.00,,,0.00,VWS V14.01,2013-12-11 18:26:00,
2013-12-11 12:30:00,24.7,13.2,30.57,West,266,6.0,15.0,61,0.00,,,0.00,VWS V14.01,2013-12-11 18:30:00,
2013-12-11 12:31:00,24.8,13.3,30.57,West,273,6.0,7.0,61,0.00,,,0.00,VWS V14.01,2013-12-11 18:31:00,
2013-12-11 12:36:00,25.1,12.8,30.57,WNW,286,6.0,15.0,59,0.00,,,0.00,VWS V14.01,2013-12-11 18:36:00,
2013-12-11 12:41:00,25.2,12.9,30.57,WNW,291,8.0,15.0,59,0.00,,,0.00,VWS V14.01,2013-12-11 18:41:00,
2013-12-11 12:46:00,25.1,12.8,30.58,North,10,3.0,15.0,59,0.00,,,0.00,VWS V14.01,2013-12-11 18:46:00,
2013-12-11 12:51:00,24.9,12.6,30.58,NW,321,0.0,15.0,59,0.00,,,0.00,VWS V14.01,2013-12-11 18:51:00,
2013-12-11 12:56:00,24.5,11.9,30.58,West,281,11.0,15.0,58,0.00,,,0.00,VWS V14.01,2013-12-11 18:56:00,
2013-12-11 13:00:00,24.3,11.7,30.58,NW,315,5.0,15.0,58,0.00,,,0.00,VWS V14.01,2013-12-11 19:00:00,
2013-12-11 13:01:00,24.3,11.3,30.58,NNE,26,3.0,8.0,57,0.00,,,0.00,VWS V14.01,2013-12-11 19:01:00,
2013-12-11 13:06:00,24.4,10.6,30.58,WNW,286,7.0,13.0,55,0.00,,,0.00,VWS V14.01,2013-12-11 19:06:00,
2013-12-11 13:11:00,24.8,11.3,30.58,NNW,330,1.0,13.0,56,0.00,,,0.00,VWS V14.01,2013-12-11 19:11:00,
2013-12-11 13:16:00,25.1,11.2,30.58,ENE,67,2.0,14.0,55,0.00,,,0.00,VWS V14.01,2013-12-11 19:16:00,
2013-12-11 13:21:00,25.4,10.7,30.58,WNW,296,2.0,16.0,53,0.00,,,0.00,VWS V14.01,2013-12-11 19:21:00,
2013-12-11 13:26:00,25.4,10.7,30.58,WNW,292,7.0,16.0,53,0.00,,,0.00,VWS V14.01,2013-12-11 19:26:00,
2013-12-11 13:30:00,25.3,9.3,30.58,NNE,31,4.0,16.0,50,0.00,,,0.00,VWS V14.01,2013-12-11 19:30:00,
2013-12-11 13:31:00,25.3,8.4,30.58,WNW,283,8.0,9.0,48,0.00,,,0.00,VWS V14.01,2013-12-11 19:31:00,
2013-12-11 13:36:00,25.2,5.3,30.58,WNW,294,4.0,12.0,42,0.00,,,0.00,VWS V14.01,2013-12-11 19:36:00,
2013-12-11 13:41:00,25.3,3.3,30.58,North,355,2.0,14.0,38,0.00,,,0.00,VWS V14.01,2013-12-11 19:41:00,
2013-12-11 13:46:00,25.3,3.3,30.58,WNW,284,1.0,14.0,38,0.00,,,0.00,VWS V14.01,2013-12-11 19:46:00,
2013-12-11 13:51:00,25.4,5.5,30.58,NW,314,6.0,14.0,42,0.00,,,0.00,VWS V14.01,2013-12-11 19:51:00,
2013-12-11 13:56:00,25.4,7.0,30.58,NNW,329,0.0,14.0,45,0.00,,,0.00,VWS V14.01,2013-12-11 19:56:00,
2013-12-11 14:00:00,25.5,8.1,30.58,WSW,257,6.0,14.0,47,0.00,,,0.00,VWS V14.01,2013-12-11 20:00:00,
2013-12-11 14:01:00,25.5,7.6,30.58,WSW,253,1.0,7.0,46,0.00,,,0.00,VWS V14.01,2013-12-11 20:01:00,
2013-12-11 14:06:00,25.3,7.9,30.58,NNW,327,0.0,16.0,47,0.00,,,0.00,VWS V14.01,2013-12-11 20:06:00,
2013-12-11 14:11:00,25.3,7.9,30.58,West,277,1.0,16.0,47,0.00,,,0.00,VWS V14.01,2013-12-11 20:11:00,
2013-12-11 14:16:00,25.3,7.4,30.58,WNW,297,4.0,16.0,46,0.00,,,0.00,VWS V14.01,2013-12-11 20:16:00,
2013-12-11 14:21:00,25.2,5.3,30.59,NE,52,4.0,16.0,42,0.00,,,0.00,VWS V14.01,2013-12-11 20:21:00,
2013-12-11 14:26:00,25.2,4.3,30.59,NNW,345,0.0,16.0,40,0.00,,,0.00,VWS V14.01,2013-12-11 20:26:00,
2013-12-11 14:30:00,24.9,2.9,30.59,NW,325,2.0,16.0,38,0.00,,,0.00,VWS V14.01,2013-12-11 20:30:00,
2013-12-11 14:31:00,24.9,2.9,30.59,NW,304,4.0,8.0,38,0.00,,,0.00,VWS V14.01,2013-12-11 20:31:00,
2013-12-11 14:36:00,24.7,2.7,30.59,West,281,7.0,9.0,38,0.00,,,0.00,VWS V14.01,2013-12-11 20:36:00,
2013-12-11 14:41:00,24.5,2.5,30.59,West,267,2.0,14.0,38,0.00,,,0.00,VWS V14.01,2013-12-11 20:41:00,
2013-12-11 14:46:00,24.2,2.8,30.59,WSW,258,4.0,14.0,39,0.00,,,0.00,VWS V14.01,2013-12-11 20:46:00,
2013-12-11 14:51:00,24.0,3.2,30.58,WNW,284,2.0,14.0,40,0.00,,,0.00,VWS V14.01,2013-12-11 20:51:00,
2013-12-11 14:56:00,24.2,3.9,30.59,NNW,348,2.0,14.0,41,0.00,,,0.00,VWS V14.01,2013-12-11 20:56:00,
2013-12-11 15:00:00,24.4,3.6,30.59,NW,304,4.0,14.0,40,0.00,,,0.00,VWS V14.01,2013-12-11 21:00:00,
2013-12-11 15:01:00,24.4,3.0,30.60,NNE,30,6.0,7.0,39,0.00,,,0.00,VWS V14.01,2013-12-11 21:01:00,
2013-12-11 15:06:00,24.2,1.1,30.59,WNW,300,4.0,13.0,36,0.00,,,0.00,VWS V14.01,2013-12-11 21:06:00,
2013-12-11 15:11:00,23.9,0.8,30.60,NNW,329,0.0,13.0,36,0.00,,,0.00,VWS V14.01,2013-12-11 21:11:00,
2013-12-11 15:16:00,23.9,0.8,30.60,WNW,295,6.0,13.0,36,0.00,,,0.00,VWS V14.01,2013-12-11 21:16:00,
2013-12-11 15:21:00,23.8,0.8,30.60,WNW,292,5.0,13.0,36,0.00,,,0.00,VWS V14.01,2013-12-11 21:21:00,
2013-12-11 15:26:00,23.4,1.0,30.60,West,263,3.0,13.0,37,0.00,,,0.00,VWS V14.01,2013-12-11 21:26:00,
2013-12-11 15:30:00,23.2,1.4,30.60,WNW,286,4.0,13.0,38,0.00,,,0.00,VWS V14.01,2013-12-11 21:30:00,
2013-12-11 15:31:00,23.2,1.4,30.60,NW,308,6.0,9.0,38,0.00,,,0.00,VWS V14.01,2013-12-11 21:31:00,
2013-12-11 15:36:00,22.9,1.7,30.60,WNW,283,0.0,9.0,39,0.00,,,0.00,VWS V14.01,2013-12-11 21:36:00,
2013-12-11 15:41:00,22.6,1.4,30.61,NNW,328,1.0,11.0,39,0.00,,,0.00,VWS V14.01,2013-12-11 21:41:00,
2013-12-11 15:46:00,22.4,1.8,30.61,North,360,1.0,11.0,40,0.00,,,0.00,VWS V14.01,2013-12-11 21:46:00,
2013-12-11 15:51:00,22.2,3.1,30.62,NW,310,0.0,11.0,43,0.00,,,0.00,VWS V14.01,2013-12-11 21:51:00,
2013-12-11 15:56:00,22.1,0.9,30.62,WNW,289,1.0,11.0,39,0.00,,,0.00,VWS V14.01,2013-12-11 21:56:00,
2013-12-11 16:00:00,22.0,0.8,30.62,WNW,290,5.0,11.0,39,0.00,,,0.00,VWS V14.01,2013-12-11 22:00:00,
2013-12-11 16:01:00,21.9,0.2,30.62,NW,311,0.0,8.0,38,0.00,,,0.00,VWS V14.01,2013-12-11 22:01:00,
2013-12-11 16:06:00,21.7,0.0,30.62,WNW,286,6.0,8.0,38,0.00,,,0.00,VWS V14.01,2013-12-11 22:06:00,
2013-12-11 16:11:00,21.5,-0.2,30.62,WSW,246,2.0,8.0,38,0.00,,,0.00,VWS V14.01,2013-12-11 22:11:00,
2013-12-11 16:16:00,21.3,-0.3,30.62,West,266,4.0,8.0,38,0.00,,,0.00,VWS V14.01,2013-12-11 22:16:00,
2013-12-11 16:21:00,21.1,-0.5,30.62,WNW,293,6.0,9.0,38,0.00,,,0.00,VWS V14.01,2013-12-11 22:21:00,
2013-12-11 16:26:00,20.8,-0.2,30.63,South,174,2.0,9.0,39,0.00,,,0.00,VWS V14.01,2013-12-11 22:26:00,
2013-12-11 16:30:00,20.6,0.1,30.62,WNW,295,0.0,9.0,40,0.00,,,0.00,VWS V14.01,2013-12-11 22:30:00,
2013-12-11 16:31:00,20.5,0.0,30.62,WNW,295,0.0,2.0,40,0.00,,,0.00,VWS V14.01,2013-12-11 22:31:00,
2013-12-11 16:36:00,20.2,0.3,30.62,SE,144,0.0,4.0,41,0.00,,,0.00,VWS V14.01,2013-12-11 22:36:00,
2013-12-11 16:41:00,20.0,0.6,30.63,WSW,258,0.0,5.0,42,0.00,,,0.00,VWS V14.01,2013-12-11 22:41:00,
2013-12-11 16:46:00,19.9,0.5,30.63,WNW,302,2.0,5.0,42,0.00,,,0.00,VWS V14.01,2013-12-11 22:46:00,
2013-12-11 16:51:00,19.7,0.8,30.63,WNW,286,8.0,8.0,43,0.00,,,0.00,VWS V14.01,2013-12-11 22:51:00,
2013-12-11 16:56:00,19.5,0.7,30.63,WNW,292,2.0,8.0,43,0.00,,,0.00,VWS V14.01,2013-12-11 22:56:00,
2013-12-11 17:00:00,19.4,0.6,30.63,SE,141,4.0,8.0,43,0.00,,,0.00,VWS V14.01,2013-12-11 23:00:00,
2013-12-11 17:01:00,19.3,0.5,30.63,SE,130,0.0,5.0,43,0.00,,,0.00,VWS V14.01,2013-12-11 23:01:00,
2013-12-11 17:07:00,19.1,0.3,30.64,WNW,293,1.0,5.0,43,0.00,,,0.00,VWS V14.01,2013-12-11 23:07:00,
2013-12-11 17:12:00,18.9,0.1,30.64,ESE,120,0.0,6.0,43,0.00,,,0.00,VWS V14.01,2013-12-11 23:12:00,
2013-12-11 17:17:00,18.6,-0.2,30.64,WNW,285,1.0,6.0,43,0.00,,,0.00,VWS V14.01,2013-12-11 23:17:00,
2013-12-11 17:22:00,18.5,0.2,30.65,NW,326,2.0,6.0,44,0.00,,,0.00,VWS V14.01,2013-12-11 23:22:00,
2013-12-11 17:27:00,18.4,0.1,30.65,NW,313,2.0,7.0,44,0.00,,,0.00,VWS V14.01,2013-12-11 23:27:00,
2013-12-11 17:30:00,18.3,0.1,30.65,West,266,0.0,7.0,44,0.00,,,0.00,VWS V14.01,2013-12-11 23:30:00,
2013-12-11 17:32:00,18.2,0.4,30.65,West,269,2.0,4.0,45,0.00,,,0.00,VWS V14.01,2013-12-11 23:32:00,
2013-12-11 17:37:00,18.1,0.3,30.65,West,265,2.0,4.0,45,0.00,,,0.00,VWS V14.01,2013-12-11 23:37:00,
2013-12-11 17:42:00,17.9,0.6,30.66,West,272,1.0,6.0,46,0.00,,,0.00,VWS V14.01,2013-12-11 23:42:00,
2013-12-11 17:47:00,17.7,0.4,30.66,West,265,2.0,6.0,46,0.00,,,0.00,VWS V14.01,2013-12-11 23:47:00,
2013-12-11 17:52:00,17.5,0.7,30.66,West,266,0.0,6.0,47,0.00,,,0.00,VWS V14.01,2013-12-11 23:52:00,
2013-12-11 17:57:00,17.3,0.5,30.66,West,266,0.0,6.0,47,0.00,,,0.00,VWS V14.01,2013-12-11 23:57:00,
2013-12-11 18:00:00,17.2,0.0,30.66,West,266,0.0,6.0,46,0.00,,,0.00,VWS V14.01,2013-12-12 00:00:00,
2013-12-11 18:02:00,17.2,0.4,30.66,West,265,2.0,2.0,47,0.00,,,0.00,VWS V14.01,2013-12-12 00:02:00,
2013-12-11 18:07:00,17.0,0.3,30.66,West,264,0.0,3.0,47,0.00,,,0.00,VWS V14.01,2013-12-12 00:07:00,
2013-12-11 18:12:00,16.7,0.4,30.66,West,264,0.0,3.0,48,0.00,,,0.00,VWS V14.01,2013-12-12 00:12:00,
2013-12-11 18:17:00,16.5,0.2,30.66,West,265,0.0,3.0,48,0.00,,,0.00,VWS V14.01,2013-12-12 00:17:00,
2013-12-11 18:22:00,16.3,0.1,30.67,West,266,2.0,4.0,48,0.00,,,0.00,VWS V14.01,2013-12-12 00:22:00,
2013-12-11 18:27:00,16.2,-0.5,30.67,West,270,1.0,5.0,47,0.00,,,0.00,VWS V14.01,2013-12-12 00:27:00,
2013-12-11 18:30:00,16.2,-0.5,30.67,West,270,1.0,5.0,47,0.00,,,0.00,VWS V14.01,2013-12-12 00:30:00,
2013-12-11 18:32:00,16.1,-0.1,30.67,West,270,0.0,1.0,48,0.00,,,0.00,VWS V14.01,2013-12-12 00:32:00,
2013-12-11 18:37:00,16.0,-0.2,30.67,West,270,0.0,4.0,48,0.00,,,0.00,VWS V14.01,2013-12-12 00:37:00,
2013-12-11 18:42:00,15.9,-0.3,30.68,West,271,0.0,5.0,48,0.00,,,0.00,VWS V14.01,2013-12-12 00:42:00,
2013-12-11 18:47:00,15.7,-0.5,30.68,West,274,0.0,6.0,48,0.00,,,0.00,VWS V14.01,2013-12-12 00:47:00,
2013-12-11 18:52:00,15.6,-0.6,30.68,West,274,2.0,6.0,48,0.00,,,0.00,VWS V14.01,2013-12-12 00:52:00,
2013-12-11 18:57:00,15.4,-0.8,30.68,West,279,0.0,6.0,48,0.00,,,0.00,VWS V14.01,2013-12-12 00:57:00,
2013-12-11 19:00:00,15.4,-0.8,30.68,West,279,0.0,6.0,48,0.00,,,0.00,VWS V14.01,2013-12-12 01:00:00,
2013-12-11 19:02:00,15.3,-0.4,30.68,West,279,0.0,0.0,49,0.00,,,0.00,VWS V14.01,2013-12-12 01:02:00,
2013-12-11 19:07:00,15.2,-0.5,30.68,West,280,0.0,5.0,49,0.00,,,0.00,VWS V14.01,2013-12-12 01:07:00,
2013-12-11 19:12:00,14.9,-0.8,30.68,West,280,0.0,5.0,49,0.00,,,0.00,VWS V14.01,2013-12-12 01:12:00,
2013-12-11 19:17:00,14.8,-0.5,30.68,West,280,0.0,6.0,50,0.00,,,0.00,VWS V14.01,2013-12-12 01:17:00,
2013-12-11 19:22:00,14.6,-0.2,30.68,West,280,0.0,6.0,51,0.00,,,0.00,VWS V14.01,2013-12-12 01:22:00,
2013-12-11 19:27:00,14.4,-0.4,30.68,West,280,0.0,6.0,51,0.00,,,0.00,VWS V14.01,2013-12-12 01:27:00,
2013-12-11 19:30:00,14.2,-0.6,30.68,West,280,0.0,6.0,51,0.00,,,0.00,VWS V14.01,2013-12-12 01:30:00,
2013-12-11 19:32:00,14.1,-0.3,30.68,West,280,1.0,1.0,52,0.00,,,0.00,VWS V14.01,2013-12-12 01:32:00,
2013-12-11 19:37:00,13.9,-0.5,30.68,West,280,0.0,2.0,52,0.00,,,0.00,VWS V14.01,2013-12-12 01:37:00,
2013-12-11 19:42:00,13.7,-0.6,30.68,West,280,0.0,2.0,52,0.00,,,0.00,VWS V14.01,2013-12-12 01:42:00,
2013-12-11 19:47:00,13.6,-0.3,30.68,West,280,0.0,2.0,53,0.00,,,0.00,VWS V14.01,2013-12-12 01:47:00,
2013-12-11 19:52:00,13.5,0.3,30.69,West,280,0.0,2.0,55,0.00,,,0.00,VWS V14.01,2013-12-12 01:52:00,
2013-12-11 19:57:00,13.2,1.2,30.69,West,280,1.0,2.0,58,0.00,,,0.00,VWS V14.01,2013-12-12 01:57:00,
2013-12-11 20:00:00,12.8,1.2,30.69,West,280,0.0,2.0,59,0.00,,,0.00,VWS V14.01,2013-12-12 02:00:00,
2013-12-11 20:02:00,12.6,1.0,30.70,West,280,0.0,0.0,59,0.00,,,0.00,VWS V14.01,2013-12-12 02:02:00,
2013-12-11 20:07:00,12.3,0.3,30.70,West,280,1.0,1.0,58,0.00,,,0.00,VWS V14.01,2013-12-12 02:07:00,
2013-12-11 20:12:00,12.1,-0.2,30.70,West,280,2.0,4.0,57,0.00,,,0.00,VWS V14.01,2013-12-12 02:12:00,
2013-12-11 20:17:00,12.2,-0.1,30.70,West,280,4.0,5.0,57,0.00,,,0.00,VWS V14.01,2013-12-12 02:17:00,
2013-12-11 20:22:00,12.4,-0.3,30.70,West,281,0.0,5.0,56,0.00,,,0.00,VWS V14.01,2013-12-12 02:22:00,
2013-12-11 20:27:00,12.5,-0.6,30.70,West,281,1.0,5.0,55,0.00,,,0.00,VWS V14.01,2013-12-12 02:27:00,
2013-12-11 20:30:00,12.5,-1.0,30.70,West,281,0.0,5.0,54,0.00,,,0.00,VWS V14.01,2013-12-12 02:30:00,
2013-12-11 20:32:00,12.4,-1.1,30.69,West,281,0.0,2.0,54,0.00,,,0.00,VWS V14.01,2013-12-12 02:32:00,
2013-12-11 20:37:00,12.4,-0.7,30.69,West,281,0.0,2.0,55,0.00,,,0.00,VWS V14.01,2013-12-12 02:37:00,
2013-12-11 20:42:00,12.2,-0.9,30.70,West,281,0.0,2.0,55,0.00,,,0.00,VWS V14.01,2013-12-12 02:42:00,
2013-12-11 20:47:00,12.1,-0.6,30.70,West,281,0.0,2.0,56,0.00,,,0.00,VWS V14.01,2013-12-12 02:47:00,
2013-12-11 20:52:00,11.9,-0.8,30.70,West,281,0.0,2.0,56,0.00,,,0.00,VWS V14.01,2013-12-12 02:52:00,
2013-12-11 20:57:00,11.7,-1.0,30.70,West,281,0.0,2.0,56,0.00,,,0.00,VWS V14.01,2013-12-12 02:57:00,
2013-12-11 21:00:00,11.7,-1.0,30.70,West,281,0.0,2.0,56,0.00,,,0.00,VWS V14.01,2013-12-12 03:00:00,
2013-12-11 21:02:00,11.6,-1.0,30.70,West,281,0.0,0.0,56,0.00,,,0.00,VWS V14.01,2013-12-12 03:02:00,
2013-12-11 21:07:00,11.4,-0.9,30.70,West,281,0.0,1.0,57,0.00,,,0.00,VWS V14.01,2013-12-12 03:07:00,
2013-12-11 21:12:00,11.1,-0.4,30.70,West,281,0.0,1.0,59,0.00,,,0.00,VWS V14.01,2013-12-12 03:12:00,
2013-12-11 21:17:00,11.0,-0.5,30.70,West,281,0.0,1.0,59,0.00,,,0.00,VWS V14.01,2013-12-12 03:17:00,
2013-12-11 21:22:00,10.8,-0.7,30.69,West,281,0.0,1.0,59,0.00,,,0.00,VWS V14.01,2013-12-12 03:22:00,
2013-12-11 21:27:00,10.7,-0.8,30.70,West,281,0.0,1.0,59,0.00,,,0.00,VWS V14.01,2013-12-12 03:27:00,
2013-12-11 21:30:00,10.7,-0.8,30.70,West,281,0.0,1.0,59,0.00,,,0.00,VWS V14.01,2013-12-12 03:30:00,
2013-12-11 21:32:00,10.6,-0.5,30.70,West,281,0.0,0.0,60,0.00,,,0.00,VWS V14.01,2013-12-12 03:32:00,
2013-12-11 21:37:00,10.4,-0.7,30.71,West,281,0.0,0.0,60,0.00,,,0.00,VWS V14.01,2013-12-12 03:37:00,
2013-12-11 21:42:00,10.3,-0.5,30.71,West,281,0.0,0.0,61,0.00,,,0.00,VWS V14.01,2013-12-12 03:42:00,
2013-12-11 21:47:00,10.2,-0.9,30.70,West,281,1.0,1.0,60,0.00,,,0.00,VWS V14.01,2013-12-12 03:47:00,
2013-12-11 21:52:00,10.1,0.0,30.70,West,281,0.0,1.0,63,0.00,,,0.00,VWS V14.01,2013-12-12 03:52:00,
2013-12-11 21:57:00,9.8,0.1,30.70,West,281,0.0,1.0,64,0.00,,,0.00,VWS V14.01,2013-12-12 03:57:00,
2013-12-11 22:00:00,9.6,0.5,30.70,West,281,1.0,2.0,66,0.00,,,0.00,VWS V14.01,2013-12-12 04:00:00,
2013-12-11 22:02:00,9.4,0.7,30.70,West,281,0.0,2.0,67,0.00,,,0.00,VWS V14.01,2013-12-12 04:02:00,
2013-12-11 22:07:00,9.1,0.4,30.70,West,281,0.0,2.0,67,0.00,,,0.00,VWS V14.01,2013-12-12 04:07:00,
2013-12-11 22:12:00,9.0,-0.4,30.70,West,281,0.0,2.0,65,0.00,,,0.00,VWS V14.01,2013-12-12 04:12:00,
2013-12-11 22:17:00,8.9,-0.4,30.70,West,281,0.0,2.0,65,0.00,,,0.00,VWS V14.01,2013-12-12 04:17:00,
2013-12-11 22:22:00,8.9,-0.8,30.70,West,281,0.0,2.0,64,0.00,,,0.00,VWS V14.01,2013-12-12 04:22:00,
2013-12-11 22:27:00,9.0,-0.4,30.71,West,281,0.0,2.0,65,0.00,,,0.00,VWS V14.01,2013-12-12 04:27:00,
2013-12-11 22:30:00,9.0,-0.4,30.71,West,281,0.0,2.0,65,0.00,,,0.00,VWS V14.01,2013-12-12 04:30:00,
2013-12-11 22:32:00,9.0,-0.4,30.70,West,281,0.0,0.0,65,0.00,,,0.00,VWS V14.01,2013-12-12 04:32:00,
2013-12-11 22:37:00,9.0,-0.4,30.70,West,281,0.0,0.0,65,0.00,,,0.00,VWS V14.01,2013-12-12 04:37:00,
2013-12-11 22:42:00,9.0,-0.4,30.70,West,281,0.0,0.0,65,0.00,,,0.00,VWS V14.01,2013-12-12 04:42:00,
2013-12-11 22:47:00,8.9,-0.8,30.70,West,281,0.0,0.0,64,0.00,,,0.00,VWS V14.01,2013-12-12 04:47:00,
2013-12-11 22:52:00,8.9,-0.4,30.70,West,281,0.0,0.0,65,0.00,,,0.00,VWS V14.01,2013-12-12 04:52:00,
2013-12-11 22:57:00,8.7,-0.3,30.70,West,281,0.0,0.0,66,0.00,,,0.00,VWS V14.01,2013-12-12 04:57:00,
2013-12-11 23:00:00,8.6,-0.4,30.70,West,281,0.0,0.0,66,0.00,,,0.00,VWS V14.01,2013-12-12 05:00:00,
2013-12-11 23:03:00,8.6,-0.4,30.70,West,281,0.0,0.0,66,0.00,,,0.00,VWS V14.01,2013-12-12 05:03:00,
2013-12-11 23:08:00,8.5,-0.2,30.70,West,281,0.0,0.0,67,0.00,,,0.00,VWS V14.01,2013-12-12 05:08:00,
2013-12-11 23:13:00,8.4,-0.3,30.70,West,281,0.0,0.0,67,0.00,,,0.00,VWS V14.01,2013-12-12 05:13:00,
2013-12-11 23:18:00,8.2,-0.5,30.70,West,281,0.0,0.0,67,0.00,,,0.00,VWS V14.01,2013-12-12 05:18:00,
2013-12-11 23:23:00,8.1,-0.6,30.70,West,281,0.0,0.0,67,0.00,,,0.00,VWS V14.01,2013-12-12 05:23:00,
2013-12-11 23:28:00,8.0,-0.4,30.70,West,281,0.0,0.0,68,0.00,,,0.00,VWS V14.01,2013-12-12 05:28:00,
2013-12-11 23:30:00,8.0,-0.4,30.70,West,281,1.0,1.0,68,0.00,,,0.00,VWS V14.01,2013-12-12 05:30:00,
2013-12-11 23:38:00,7.9,-0.1,30.70,West,281,0.0,1.0,69,0.00,,,0.00,VWS V14.01,2013-12-12 05:38:00,
2013-12-11 23:43:00,7.8,-0.2,30.70,West,281,0.0,1.0,69,0.00,,,0.00,VWS V14.01,2013-12-12 05:43:00,
2013-12-11 23:48:00,7.8,-0.2,30.70,West,281,0.0,1.0,69,0.00,,,0.00,VWS V14.01,2013-12-12 05:48:00,
2013-12-11 23:53:00,7.8,-0.2,30.69,West,281,0.0,1.0,69,0.00,,,0.00,VWS V14.01,2013-12-12 05:53:00,
2013-12-11 23:58:00,7.7,-0.3,30.68,West,281,0.0,1.0,69,0.00,,,0.00,VWS V14.01,2013-12-12 05:58:00,